| time (UTC) | temp C | wind direction | speed KPH | gust KPH | rain 1hr cm | rain 24hr cm | rain mn cm | humidity % | barometer mb |
| 20260507104031 | 3 | 221 | 9.7 | 17.7 | 0.00 | 0.00 | 0.00 | 80 | 1011.9 |
| 20260507103534 | 3 | 235 | 9.7 | 19.3 | 0.00 | 0.00 | 0.00 | 80 | 1011.9 |
| 20260507103042 | 3 | 236 | 12.9 | 19.3 | 0.00 | 0.00 | 0.00 | 79 | 1011.9 |
| 20260507102535 | 3 | 213 | 11.3 | 19.3 | 0.00 | 0.00 | 0.00 | 79 | 1011.8 |
| 20260507102038 | 3 | 209 | 11.3 | 17.7 | 0.00 | 0.00 | 0.00 | 78 | 1011.9 |
| 20260507101547 | 3 | 226 | 9.7 | 24.1 | 0.00 | 0.00 | 0.00 | 78 | 1012.0 |
| 20260507101034 | 4 | 229 | 16.1 | 24.1 | 0.00 | 0.00 | 0.00 | 77 | 1012.0 |
| 20260507100534 | 4 | 226 | 14.5 | 22.5 | 0.00 | 0.00 | 0.00 | 77 | 1012.1 |
| 20260507100050 | 4 | 229 | 12.9 | 22.5 | 0.00 | 0.00 | 0.00 | 77 | 1012.0 |
| 20260507095533 | 4 | 216 | 14.5 | 19.3 | 0.00 | 0.00 | 0.00 | 77 | 1012.3 |
| 20260507095033 | 4 | 238 | 9.7 | 22.5 | 0.00 | 0.00 | 0.00 | 77 | 1012.3 |
| 20260507094547 | 4 | 229 | 11.3 | 22.5 | 0.00 | 0.00 | 0.00 | 77 | 1012.3 |
| 20260507094030 | 4 | 214 | 14.5 | 25.7 | 0.00 | 0.00 | 0.00 | 77 | 1012.4 |
| 20260507093531 | 4 | 225 | 17.7 | 25.7 | 0.00 | 0.00 | 0.00 | 76 | 1012.4 |
| 20260507093048 | 4 | 229 | 16.1 | 24.1 | 0.00 | 0.00 | 0.00 | 76 | 1012.5 |
| 20260507092530 | 4 | 237 | 12.9 | 24.1 | 0.00 | 0.00 | 0.00 | 76 | 1012.5 |
| 20260507092029 | 5 | 228 | 14.5 | 24.1 | 0.00 | 0.00 | 0.00 | 76 | 1012.7 |
| 20260507091546 | 5 | 221 | 16.1 | 24.1 | 0.00 | 0.00 | 0.00 | 76 | 1012.5 |
| 20260507091034 | 5 | 227 | 14.5 | 22.5 | 0.00 | 0.00 | 0.00 | 76 | 1012.7 |
| 20260507090538 | 5 | 227 | 14.5 | 25.7 | 0.00 | 0.00 | 0.00 | 76 | 1012.6 |
| 20260507090048 | 5 | 217 | 14.5 | 29.0 | 0.00 | 0.00 | 0.00 | 76 | 1012.8 |
| 20260507085536 | 5 | 229 | 19.3 | 29.0 | 0.00 | 0.00 | 0.00 | 76 | 1012.9 |
| 20260507085034 | 5 | 244 | 19.3 | 29.0 | 0.00 | 0.00 | 0.00 | 77 | 1013.0 |
| 20260507084553 | 5 | 228 | 16.1 | 22.5 | 0.00 | 0.00 | 0.00 | 77 | 1013.0 |
| 20260507084033 | 5 | 232 | 14.5 | 24.1 | 0.00 | 0.00 | 0.00 | 77 | 1013.2 |
| 20260507083535 | 5 | 233 | 14.5 | 24.1 | 0.00 | 0.00 | 0.00 | 77 | 1013.3 |
| 20260507083051 | 5 | 221 | 17.7 | 27.4 | 0.00 | 0.00 | 0.00 | 77 | 1013.4 |
| 20260507082535 | 5 | 217 | 19.3 | 27.4 | 0.00 | 0.00 | 0.00 | 77 | 1013.5 |
| 20260507082037 | 5 | 232 | 17.7 | 25.7 | 0.00 | 0.00 | 0.00 | 78 | 1013.4 |
| 20260507081547 | 5 | 235 | 19.3 | 27.4 | 0.00 | 0.00 | 0.00 | 78 | 1013.5 |
| 20260507081037 | 5 | 240 | 19.3 | 27.4 | 0.00 | 0.00 | 0.00 | 78 | 1013.6 |
| 20260507080535 | 5 | 238 | 17.7 | 29.0 | 0.00 | 0.00 | 0.00 | 78 | 1013.7 |
| 20260507080053 | 5 | 238 | 20.9 | 29.0 | 0.00 | 0.00 | 0.00 | 78 | 1013.8 |
| 20260507075538 | 5 | 248 | 16.1 | 29.0 | 0.00 | 0.00 | 0.00 | 78 | 1013.8 |
| 20260507075034 | 5 | 234 | 19.3 | 29.0 | 0.00 | 0.00 | 0.00 | 78 | 1014.0 |
| 20260507074543 | 5 | 232 | 12.9 | 24.1 | 0.00 | 0.00 | 0.00 | 78 | 1014.1 |
| 20260507074033 | 5 | 213 | 16.1 | 24.1 | 0.00 | 0.00 | 0.00 | 78 | 1014.0 |
| 20260507073534 | 5 | 236 | 16.1 | 22.5 | 0.00 | 0.00 | 0.00 | 79 | 1014.1 |
| 20260507073048 | 5 | 234 | 16.1 | 22.5 | 0.00 | 0.00 | 0.00 | 79 | 1014.1 |
| 20260507072534 | 5 | 224 | 14.5 | 25.7 | 0.00 | 0.00 | 0.00 | 80 | 1014.2 |
| 20260507072034 | 5 | 234 | 14.5 | 27.4 | 0.00 | 0.00 | 0.00 | 80 | 1014.3 |
| 20260507071550 | 5 | 223 | 16.1 | 27.4 | 0.00 | 0.00 | 0.00 | 80 | 1014.3 |
| 20260507071038 | 5 | 236 | 16.1 | 24.1 | 0.00 | 0.00 | 0.00 | 80 | 1014.3 |
| 20260507070533 | 5 | 210 | 16.1 | 24.1 | 0.00 | 0.00 | 0.00 | 80 | 1014.2 |
| 20260507070048 | 5 | 229 | 14.5 | 19.3 | 0.00 | 0.00 | 0.00 | 80 | 1014.3 |
| 20260507065533 | 5 | 226 | 11.3 | 22.5 | 0.00 | 0.00 | 0.00 | 80 | 1014.3 |
| 20260507065034 | 5 | 233 | 14.5 | 22.5 | 0.00 | 0.00 | 0.00 | 80 | 1014.3 |
| 20260507064544 | 5 | 236 | 12.9 | 22.5 | 0.00 | 0.00 | 0.00 | 79 | 1014.2 |
| 20260507064031 | 5 | 221 | 12.9 | 24.1 | 0.00 | 0.00 | 0.00 | 79 | 1014.4 |
| 20260507063533 | 5 | 244 | 16.1 | 24.1 | 0.00 | 0.00 | 0.00 | 79 | 1014.5 |
| 20260507063045 | 5 | 233 | 16.1 | 24.1 | 0.00 | 0.00 | 0.00 | 79 | 1014.6 |
| 20260507062535 | 5 | 238 | 16.1 | 24.1 | 0.00 | 0.00 | 0.00 | 78 | 1014.5 |
| 20260507062034 | 5 | 216 | 16.1 | 24.1 | 0.00 | 0.00 | 0.00 | 78 | 1014.6 |
| 20260507061546 | 5 | 233 | 14.5 | 25.7 | 0.00 | 0.00 | 0.00 | 78 | 1014.6 |
| 20260507061033 | 5 | 217 | 14.5 | 27.4 | 0.00 | 0.00 | 0.00 | 77 | 1014.7 |
| 20260507060533 | 6 | 233 | 17.7 | 27.4 | 0.00 | 0.00 | 0.00 | 77 | 1014.7 |
| 20260507060051 | 6 | 234 | 20.9 | 29.0 | 0.00 | 0.00 | 0.00 | 76 | 1014.7 |
| 20260507055532 | 6 | 227 | 19.3 | 33.8 | 0.00 | 0.00 | 0.00 | 76 | 1014.6 |
| 20260507055034 | 6 | 213 | 22.5 | 33.8 | 0.00 | 0.00 | 0.00 | 76 | 1014.7 |
| 20260507054547 | 6 | 228 | 22.5 | 33.8 | 0.00 | 0.00 | 0.00 | 75 | 1014.9 |
| 20260507054031 | 6 | 229 | 19.3 | 32.2 | 0.00 | 0.00 | 0.00 | 75 | 1014.7 |
| 20260507053534 | 6 | 229 | 17.7 | 32.2 | 0.00 | 0.00 | 0.00 | 75 | 1014.7 |
| 20260507053045 | 6 | 209 | 17.7 | 32.2 | 0.00 | 0.00 | 0.00 | 74 | 1014.8 |
| 20260507052534 | 6 | 222 | 19.3 | 32.2 | 0.00 | 0.00 | 0.00 | 74 | 1014.8 |
| 20260507052033 | 6 | 218 | 19.3 | 32.2 | 0.00 | 0.00 | 0.00 | 74 | 1015.0 |
| 20260507051552 | 6 | 209 | 17.7 | 33.8 | 0.00 | 0.00 | 0.00 | 73 | 1014.9 |
| 20260507051030 | 6 | 213 | 19.3 | 33.8 | 0.00 | 0.00 | 0.00 | 73 | 1015.0 |
| 20260507050530 | 7 | 203 | 20.9 | 33.8 | 0.00 | 0.00 | 0.00 | 72 | 1014.9 |
| 20260507050046 | 7 | 227 | 22.5 | 33.8 | 0.00 | 0.00 | 0.00 | 72 | 1015.2 |
| 20260507045531 | 7 | 233 | 20.9 | 35.4 | 0.00 | 0.00 | 0.00 | 72 | 1015.2 |
| 20260507045034 | 7 | 204 | 22.5 | 35.4 | 0.00 | 0.00 | 0.00 | 72 | 1015.1 |
| 20260507044549 | 7 | 230 | 22.5 | 30.6 | 0.00 | 0.00 | 0.00 | 72 | 1015.1 |
| 20260507044035 | 7 | 218 | 22.5 | 30.6 | 0.00 | 0.00 | 0.00 | 72 | 1015.2 |
| 20260507043534 | 6 | 211 | 20.9 | 30.6 | 0.00 | 0.00 | 0.00 | 72 | 1015.4 |
| 20260507043047 | 6 | 227 | 17.7 | 29.0 | 0.00 | 0.00 | 0.00 | 72 | 1015.5 |
| 20260507042537 | 7 | 215 | 19.3 | 29.0 | 0.00 | 0.00 | 0.00 | 71 | 1015.5 |
| 20260507042034 | 7 | 206 | 17.7 | 30.6 | 0.00 | 0.00 | 0.00 | 70 | 1015.6 |
| 20260507041540 | 7 | 221 | 19.3 | 30.6 | 0.00 | 0.00 | 0.00 | 70 | 1015.6 |
| 20260507041034 | 7 | 219 | 19.3 | 30.6 | 0.00 | 0.00 | 0.00 | 69 | 1015.7 |
| 20260507040533 | 7 | 223 | 17.7 | 30.6 | 0.00 | 0.00 | 0.00 | 68 | 1015.6 |
| 20260507040053 | 7 | 219 | 17.7 | 30.6 | 0.00 | 0.00 | 0.00 | 66 | 1015.7 |
| 20260507035534 | 7 | 217 | 16.1 | 24.1 | 0.00 | 0.00 | 0.00 | 65 | 1015.7 |
| 20260507035031 | 7 | 230 | 16.1 | 27.4 | 0.00 | 0.00 | 0.00 | 64 | 1015.8 |
| 20260507034551 | 7 | 236 | 16.1 | 27.4 | 0.00 | 0.00 | 0.00 | 63 | 1015.7 |
| 20260507034034 | 7 | 215 | 17.7 | 25.7 | 0.00 | 0.00 | 0.00 | 62 | 1015.7 |
| 20260507033534 | 7 | 237 | 17.7 | 25.7 | 0.00 | 0.00 | 0.00 | 62 | 1015.8 |
| 20260507033046 | 7 | 209 | 16.1 | 27.4 | 0.00 | 0.00 | 0.00 | 61 | 1015.7 |
| 20260507032534 | 7 | 206 | 17.7 | 27.4 | 0.00 | 0.00 | 0.00 | 60 | 1015.7 |
| 20260507032033 | 7 | 221 | 14.5 | 22.5 | 0.00 | 0.00 | 0.00 | 59 | 1015.7 |
| 20260507031548 | 7 | 225 | 14.5 | 22.5 | 0.00 | 0.00 | 0.00 | 58 | 1015.8 |
| 20260507031036 | 7 | 214 | 16.1 | 22.5 | 0.00 | 0.00 | 0.00 | 57 | 1015.8 |
| 20260507030534 | 8 | 227 | 16.1 | 22.5 | 0.00 | 0.00 | 0.00 | 56 | 1015.7 |
| 20260507030043 | 8 | 224 | 14.5 | 22.5 | 0.00 | 0.00 | 0.00 | 55 | 1015.9 |
| 20260507025533 | 8 | 232 | 14.5 | 22.5 | 0.00 | 0.00 | 0.00 | 54 | 1015.8 |
| 20260507025033 | 8 | 217 | 12.9 | 19.3 | 0.00 | 0.00 | 0.00 | 53 | 1015.9 |
| 20260507024548 | 8 | 220 | 12.9 | 17.7 | 0.00 | 0.00 | 0.00 | 51 | 1015.9 |
| 20260507024035 | 8 | 212 | 11.3 | 17.7 | 0.00 | 0.00 | 0.00 | 50 | 1015.9 |
| 20260507023536 | 8 | 210 | 11.3 | 17.7 | 0.00 | 0.00 | 0.00 | 49 | 1015.8 |
| 20260507023051 | 8 | 217 | 11.3 | 16.1 | 0.00 | 0.00 | 0.00 | 48 | 1015.7 |
| 20260507022533 | 8 | 213 | 11.3 | 16.1 | 0.00 | 0.00 | 0.00 | 47 | 1015.7 |
| 20260507022034 | 9 | 220 | 9.7 | 12.9 | 0.00 | 0.00 | 0.00 | 46 | 1015.6 |
| 20260507021547 | 9 | 220 | 9.7 | 14.5 | 0.00 | 0.00 | 0.00 | 45 | 1015.6 |
| 20260507021039 | 9 | 224 | 9.7 | 16.1 | 0.00 | 0.00 | 0.00 | 45 | 1015.6 |
| 20260507020535 | 9 | 221 | 11.3 | 19.3 | 0.00 | 0.00 | 0.00 | 45 | 1015.7 |
| 20260507020106 | 10 | 228 | 14.5 | 19.3 | 0.00 | 0.00 | 0.00 | 44 | 1015.6 |
| 20260507015539 | 10 | 219 | 12.9 | 17.7 | 0.00 | 0.00 | 0.00 | 44 | 1015.6 |
| 20260507015036 | 10 | 227 | 9.7 | 14.5 | 0.00 | 0.00 | 0.00 | 44 | 1015.6 |
| 20260507014546 | 10 | 225 | 8.0 | 17.7 | 0.00 | 0.00 | 0.00 | 43 | 1015.6 |
| 20260507014036 | 10 | 222 | 9.7 | 20.9 | 0.00 | 0.00 | 0.00 | 42 | 1015.6 |
| 20260507013535 | 10 | 223 | 11.3 | 20.9 | 0.00 | 0.00 | 0.00 | 41 | 1015.6 |
| 20260507013054 | 11 | 222 | 11.3 | 16.1 | 0.00 | 0.00 | 0.00 | 41 | 1015.6 |
| 20260507012535 | 11 | 208 | 11.3 | 17.7 | 0.00 | 0.00 | 0.00 | 41 | 1015.6 |
| 20260507012036 | 11 | 223 | 11.3 | 17.7 | 0.00 | 0.00 | 0.00 | 40 | 1015.6 |
| 20260507011546 | 11 | 238 | 8.0 | 16.1 | 0.00 | 0.00 | 0.00 | 40 | 1015.7 |
| 20260507011039 | 11 | 252 | 8.0 | 17.7 | 0.00 | 0.00 | 0.00 | 40 | 1015.7 |
| 20260507010535 | 11 | 236 | 11.3 | 17.7 | 0.00 | 0.00 | 0.00 | 39 | 1015.7 |
| 20260507010048 | 11 | 237 | 12.9 | 19.3 | 0.00 | 0.00 | 0.00 | 38 | 1015.6 |
| 20260507005537 | 11 | 239 | 12.9 | 22.5 | 0.00 | 0.00 | 0.00 | 37 | 1015.6 |
| 20260507005039 | 11 | 238 | 12.9 | 27.4 | 0.00 | 0.00 | 0.00 | 36 | 1015.7 |
| 20260507004600 | 12 | 240 | 17.7 | 27.4 | 0.00 | 0.00 | 0.00 | 35 | 1015.7 |
| 20260507004036 | 12 | 243 | 17.7 | 27.4 | 0.00 | 0.00 | 0.00 | 35 | 1015.7 |
| 20260507003536 | 12 | 245 | 16.1 | 27.4 | 0.00 | 0.00 | 0.00 | 33 | 1015.7 |
| 20260507003051 | 12 | 251 | 17.7 | 27.4 | 0.00 | 0.00 | 0.00 | 34 | 1015.7 |
| 20260507002536 | 12 | 254 | 16.1 | 22.5 | 0.00 | 0.00 | 0.00 | 33 | 1015.8 |
| 20260507002036 | 12 | 235 | 12.9 | 25.7 | 0.00 | 0.00 | 0.00 | 35 | 1015.9 |
| 20260507001551 | 12 | 249 | 16.1 | 29.0 | 0.00 | 0.00 | 0.00 | 34 | 1015.9 |
| 20260507001035 | 12 | 245 | 20.9 | 29.0 | 0.00 | 0.00 | 0.00 | 33 | 1015.9 |
| 20260507000536 | 12 | 242 | 20.9 | 29.0 | 0.00 | 0.00 | 0.00 | 34 | 1016.0 |
| 20260507000051 | 12 | 237 | 24.1 | 29.0 | 0.00 | 0.00 | 0.00 | 33 | 1016.0 |
| 20260506235536 | 12 | 238 | 22.5 | 29.0 | 0.00 | 0.00 | 0.00 | 34 | 1016.0 |
| 20260506235038 | 12 | 248 | 16.1 | 29.0 | 0.00 | 0.00 | 0.00 | 34 | 1016.0 |
| 20260506234550 | 12 | 259 | 20.9 | 35.4 | 0.00 | 0.00 | 0.00 | 32 | 1016.1 |
| 20260506234036 | 12 | 258 | 25.7 | 35.4 | 0.00 | 0.00 | 0.00 | 33 | 1016.1 |
| 20260506233536 | 12 | 243 | 24.1 | 30.6 | 0.00 | 0.00 | 0.00 | 35 | 1016.1 |
| 20260506233101 | 12 | 229 | 16.1 | 25.7 | 0.00 | 0.00 | 0.00 | 34 | 1016.3 |
| 20260506232535 | 11 | 267 | 17.7 | 24.1 | 0.00 | 0.00 | 0.00 | 34 | 1016.1 |
| 20260506232035 | 11 | 267 | 16.1 | 24.1 | 0.00 | 0.00 | 0.00 | 34 | 1016.3 |
| 20260506231554 | 11 | 267 | 16.1 | 32.2 | 0.00 | 0.00 | 0.00 | 37 | 1016.3 |
| 20260506231037 | 12 | 242 | 20.9 | 32.2 | 0.00 | 0.00 | 0.00 | 33 | 1016.1 |
| 20260506230533 | 12 | 248 | 22.5 | 32.2 | 0.00 | 0.00 | 0.00 | 34 | 1016.1 |
| 20260506230049 | 12 | 244 | 22.5 | 29.0 | 0.00 | 0.00 | 0.00 | 33 | 1016.0 |
| 20260506225534 | 12 | 254 | 22.5 | 35.4 | 0.00 | 0.05 | 0.00 | 36 | 1016.3 |
| 20260506225034 | 12 | 255 | 20.9 | 35.4 | 0.00 | 0.05 | 0.00 | 33 | 1016.1 |
| 20260506224552 | 12 | 261 | 20.9 | 43.5 | 0.00 | 0.05 | 0.00 | 31 | 1016.3 |
| 20260506224033 | 12 | 263 | 24.1 | 45.1 | 0.00 | 0.05 | 0.00 | 30 | 1016.1 |
| 20260506223533 | 12 | 261 | 25.7 | 45.1 | 0.00 | 0.05 | 0.00 | 33 | 1016.3 |
| 20260506223048 | 12 | 282 | 16.1 | 25.7 | 0.00 | 0.05 | 0.00 | 31 | 1016.4 |
| 20260506222534 | 12 | 271 | 17.7 | 32.2 | 0.00 | 0.05 | 0.00 | 30 | 1016.5 |
| 20260506222034 | 12 | 280 | 17.7 | 32.2 | 0.00 | 0.05 | 0.00 | 32 | 1016.6 |
| 20260506221548 | 12 | 269 | 12.9 | 32.2 | 0.00 | 0.05 | 0.00 | 32 | 1016.5 |
| 20260506221033 | 12 | 248 | 16.1 | 35.4 | 0.00 | 0.05 | 0.00 | 34 | 1016.6 |
| 20260506220533 | 12 | 248 | 25.7 | 35.4 | 0.00 | 0.05 | 0.00 | 32 | 1016.5 |
| 20260506220049 | 12 | 267 | 17.7 | 25.7 | 0.00 | 0.05 | 0.00 | 34 | 1016.8 |
| 20260506215531 | 11 | 254 | 14.5 | 27.4 | 0.00 | 0.05 | 0.00 | 36 | 1016.8 |
| 20260506215036 | 11 | 251 | 17.7 | 33.8 | 0.00 | 0.05 | 0.00 | 37 | 1017.0 |
| 20260506214552 | 11 | 240 | 24.1 | 33.8 | 0.00 | 0.05 | 0.00 | 35 | 1017.1 |
| 20260506214034 | 12 | 225 | 20.9 | 32.2 | 0.00 | 0.05 | 0.00 | 36 | 1017.2 |
| 20260506213534 | 12 | 208 | 19.3 | 35.4 | 0.00 | 0.05 | 0.00 | 34 | 1017.1 |
| 20260506213058 | 12 | 261 | 25.7 | 35.4 | 0.00 | 0.05 | 0.00 | 34 | 1017.2 |
| 20260506212534 | 12 | 271 | 9.7 | 30.6 | 0.00 | 0.05 | 0.00 | 37 | 1017.1 |
| 20260506212034 | 11 | 218 | 3.2 | 16.1 | 0.00 | 0.05 | 0.00 | 37 | 1017.4 |
| 20260506211543 | 11 | 324 | 6.4 | 16.1 | 0.00 | 0.05 | 0.00 | 37 | 1017.3 |
| 20260506211034 | 11 | 250 | 9.7 | 27.4 | 0.00 | 0.05 | 0.00 | 36 | 1017.5 |
| 20260506210534 | 11 | 223 | 12.9 | 27.4 | 0.00 | 0.05 | 0.00 | 35 | 1017.6 |
| 20260506210043 | 11 | 229 | 19.3 | 27.4 | 0.00 | 0.05 | 0.00 | 35 | 1017.6 |
| 20260506205533 | 12 | 248 | 19.3 | 27.4 | 0.00 | 0.05 | 0.00 | 37 | 1017.6 |
| 20260506205033 | 12 | 173 | 11.3 | 22.5 | 0.00 | 0.05 | 0.00 | 35 | 1017.6 |
| 20260506204546 | 11 | 215 | 9.7 | 20.9 | 0.00 | 0.05 | 0.00 | 36 | 1017.8 |
| 20260506204033 | 11 | 213 | 12.9 | 20.9 | 0.00 | 0.05 | 0.00 | 36 | 1018.0 |
| 20260506203533 | 11 | 218 | 11.3 | 29.0 | 0.00 | 0.05 | 0.00 | 35 | 1018.1 |
| 20260506203045 | 12 | 218 | 20.9 | 29.0 | 0.00 | 0.05 | 0.00 | 35 | 1018.1 |
| 20260506202535 | 12 | 264 | 12.9 | 32.2 | 0.00 | 0.05 | 0.00 | 37 | 1018.1 |
| 20260506202031 | 11 | 223 | 16.1 | 32.2 | 0.00 | 0.05 | 0.00 | 35 | 1018.1 |
| 20260506201545 | 11 | 259 | 14.5 | 32.2 | 0.00 | 0.05 | 0.00 | 34 | 1018.1 |
| 20260506201033 | 11 | 232 | 9.7 | 25.7 | 0.00 | 0.05 | 0.00 | 36 | 1018.3 |
| 20260506200533 | 10 | 287 | 16.1 | 25.7 | 0.00 | 0.05 | 0.00 | 34 | 1018.2 |
| 20260506200047 | 11 | 290 | 19.3 | 25.7 | 0.00 | 0.05 | 0.00 | 35 | 1018.1 |
| 20260506195534 | 10 | 209 | 4.8 | 22.5 | 0.00 | 0.05 | 0.00 | 39 | 1018.3 |
| 20260506195037 | 10 | 239 | 14.5 | 22.5 | 0.00 | 0.05 | 0.00 | 35 | 1018.3 |
| 20260506194547 | 10 | 300 | 8.0 | 27.4 | 0.00 | 0.05 | 0.00 | 35 | 1018.3 |
| 20260506194034 | 11 | 265 | 12.9 | 32.2 | 0.00 | 0.05 | 0.00 | 33 | 1018.4 |
| 20260506193536 | 11 | 246 | 22.5 | 32.2 | 0.00 | 0.05 | 0.00 | 36 | 1018.4 |
| 20260506193040 | 11 | 232 | 12.9 | 24.1 | 0.00 | 0.05 | 0.00 | 37 | 1018.4 |
| 20260506192535 | 11 | 234 | 8.0 | 25.7 | 0.00 | 0.05 | 0.00 | 36 | 1018.5 |
| 20260506192034 | 10 | 279 | 14.5 | 25.7 | 0.00 | 0.05 | 0.00 | 36 | 1018.5 |
| 20260506191543 | 11 | 261 | 17.7 | 25.7 | 0.00 | 0.05 | 0.00 | 36 | 1018.5 |
| 20260506191034 | 10 | 242 | 8.0 | 27.4 | 0.00 | 0.05 | 0.00 | 35 | 1018.7 |
| 20260506190536 | 10 | 179 | 6.4 | 27.4 | 0.00 | 0.05 | 0.00 | 36 | 1018.7 |
| 20260506190048 | 10 | 248 | 17.7 | 27.4 | 0.00 | 0.05 | 0.00 | 37 | 1018.8 |
| 20260506185534 | 10 | 267 | 6.4 | 16.1 | 0.00 | 0.05 | 0.00 | 39 | 1018.7 |
| 20260506185034 | 10 | 282 | 4.8 | 14.5 | 0.00 | 0.05 | 0.00 | 40 | 1018.8 |
| 20260506184551 | 10 | 217 | 8.0 | 22.5 | 0.00 | 0.05 | 0.00 | 40 | 1019.1 |
| 20260506184034 | 10 | 248 | 11.3 | 22.5 | 0.00 | 0.05 | 0.00 | 38 | 1019.2 |
| 20260506183533 | 10 | 288 | 11.3 | 27.4 | 0.00 | 0.05 | 0.00 | 41 | 1019.0 |
| 20260506183056 | 10 | 252 | 12.9 | 27.4 | 0.00 | 0.05 | 0.00 | 41 | 1019.3 |
| 20260506182533 | 10 | 240 | 8.0 | 22.5 | 0.00 | 0.05 | 0.00 | 42 | 1019.2 |
| 20260506182034 | 9 | 256 | 11.3 | 22.5 | 0.00 | 0.05 | 0.00 | 38 | 1019.5 |
| 20260506181609 | 9 | 205 | 1.6 | 12.9 | 0.00 | 0.05 | 0.00 | 42 | 1019.5 |
| 20260506181034 | 9 | 84 | 6.4 | 17.7 | 0.00 | 0.05 | 0.00 | 39 | 1019.6 |
| 20260506180534 | 10 | 271 | 4.8 | 17.7 | 0.00 | 0.05 | 0.00 | 44 | 1019.7 |
| 20260506180051 | 9 | 231 | 6.4 | 22.5 | 0.00 | 0.05 | 0.00 | 44 | 1019.8 |
| 20260506175533 | 9 | 225 | 12.9 | 22.5 | 0.00 | 0.05 | 0.00 | 44 | 1019.9 |
| 20260506175037 | 9 | 204 | 14.5 | 22.5 | 0.00 | 0.05 | 0.00 | 43 | 1019.9 |
| 20260506174545 | 9 | 244 | 4.8 | 19.3 | 0.00 | 0.05 | 0.00 | 42 | 1019.9 |
| 20260506174034 | 9 | 310 | 3.2 | 20.9 | 0.00 | 0.05 | 0.00 | 44 | 1020.0 |
| 20260506173535 | 8 | 280 | 11.3 | 20.9 | 0.00 | 0.05 | 0.00 | 42 | 1020.0 |
| 20260506173057 | 8 | 226 | 12.9 | 20.9 | 0.00 | 0.05 | 0.00 | 43 | 1020.0 |
| 20260506172536 | 9 | 257 | 11.3 | 19.3 | 0.00 | 0.05 | 0.00 | 43 | 1019.9 |
| 20260506172035 | 8 | 38 | 3.2 | 17.7 | 0.00 | 0.05 | 0.00 | 46 | 1020.0 |
| 20260506171546 | 8 | 265 | 11.3 | 17.7 | 0.00 | 0.05 | 0.00 | 43 | 1020.0 |
| 20260506171034 | 8 | 275 | 9.7 | 14.5 | 0.00 | 0.05 | 0.00 | 44 | 1020.0 |
| 20260506170534 | 8 | 0 | 8.0 | 12.9 | 0.00 | 0.05 | 0.00 | 45 | 1020.0 |
| 20260506170052 | 8 | 268 | 4.8 | 9.7 | 0.00 | 0.05 | 0.00 | 45 | 1020.0 |
| 20260506165535 | 8 | 0 | 1.6 | 12.9 | 0.00 | 0.10 | 0.00 | 45 | 1020.1 |
| 20260506165035 | 8 | 0 | 1.6 | 20.9 | 0.00 | 0.10 | 0.00 | 45 | 1020.0 |
| 20260506164544 | 8 | 249 | 4.8 | 20.9 | 0.00 | 0.10 | 0.00 | 45 | 1020.0 |
| 20260506164034 | 8 | 277 | 12.9 | 20.9 | 0.00 | 0.10 | 0.00 | 44 | 1020.0 |
| 20260506163534 | 8 | 295 | 6.4 | 14.5 | 0.00 | 0.10 | 0.00 | 46 | 1020.0 |
| 20260506163050 | 8 | 282 | 11.3 | 14.5 | 0.00 | 0.10 | 0.00 | 44 | 1020.0 |
| 20260506162531 | 8 | 307 | 4.8 | 11.3 | 0.00 | 0.10 | 0.00 | 46 | 1020.0 |
| 20260506162034 | 8 | 41 | 4.8 | 12.9 | 0.00 | 0.10 | 0.00 | 44 | 1019.9 |
| 20260506161548 | 8 | 360 | 1.6 | 20.9 | 0.00 | 0.10 | 0.00 | 46 | 1020.0 |
| 20260506161033 | 8 | 268 | 8.0 | 20.9 | 0.00 | 0.10 | 0.00 | 47 | 1019.9 |
| 20260506160533 | 8 | 273 | 9.7 | 17.7 | 0.00 | 0.10 | 0.00 | 46 | 1020.0 |
| 20260506160054 | 8 | 296 | 3.2 | 17.7 | 0.00 | 0.10 | 0.00 | 49 | 1019.9 |
| 20260506155534 | 7 | 49 | 3.2 | 17.7 | 0.00 | 0.13 | 0.00 | 49 | 1019.9 |
| 20260506155034 | 7 | 16 | 9.7 | 17.7 | 0.00 | 0.13 | 0.00 | 51 | 1019.9 |
| 20260506154546 | 8 | 34 | 8.0 | 17.7 | 0.00 | 0.13 | 0.00 | 47 | 1019.8 |
| 20260506154034 | 8 | 16 | 6.4 | 19.3 | 0.00 | 0.13 | 0.00 | 46 | 1019.8 |
| 20260506153534 | 7 | 286 | 12.9 | 19.3 | 0.00 | 0.13 | 0.00 | 47 | 1019.7 |
| 20260506153106 | 8 | 292 | 14.5 | 19.3 | 0.00 | 0.13 | 0.00 | 46 | 1019.7 |
| 20260506152534 | 8 | 270 | 1.6 | 16.1 | 0.00 | 0.13 | 0.00 | 47 | 1019.7 |
| 20260506152034 | 7 | 39 | 8.0 | 17.7 | 0.00 | 0.13 | 0.00 | 48 | 1019.8 |
| 20260506151544 | 7 | 342 | 14.5 | 17.7 | 0.00 | 0.13 | 0.00 | 46 | 1019.7 |
| 20260506151038 | 8 | 55 | 1.6 | 9.7 | 0.00 | 0.13 | 0.00 | 49 | 1019.8 |
| 20260506150534 | 7 | 0 | 4.8 | 17.7 | 0.00 | 0.13 | 0.00 | 47 | 1019.9 |
| 20260506150058 | 7 | 20 | 9.7 | 17.7 | 0.00 | 0.13 | 0.00 | 49 | 1019.8 |
| 20260506145535 | 7 | 355 | 6.4 | 14.5 | 0.00 | 0.15 | 0.00 | 49 | 1019.9 |
| 20260506145034 | 7 | 316 | 3.2 | 9.7 | 0.00 | 0.15 | 0.00 | 48 | 1019.9 |
| 20260506144554 | 7 | 0 | 3.2 | 9.7 | 0.00 | 0.15 | 0.00 | 47 | 1020.0 |
| 20260506144033 | 7 | 267 | 1.6 | 14.5 | 0.00 | 0.15 | 0.00 | 47 | 1020.0 |
| 20260506143534 | 7 | 287 | 6.4 | 14.5 | 0.00 | 0.15 | 0.00 | 51 | 1020.0 |
| 20260506143048 | 7 | 318 | 4.8 | 12.9 | 0.00 | 0.15 | 0.00 | 48 | 1020.0 |
| 20260506142534 | 7 | 284 | 1.6 | 14.5 | 0.00 | 0.15 | 0.00 | 48 | 1020.0 |
| 20260506142034 | 7 | 38 | 8.0 | 14.5 | 0.00 | 0.15 | 0.00 | 47 | 1020.0 |
| 20260506141542 | 7 | 326 | 4.8 | 12.9 | 0.00 | 0.15 | 0.00 | 48 | 1020.0 |
| 20260506141034 | 7 | 348 | 0.0 | 4.8 | 0.00 | 0.15 | 0.00 | 49 | 1020.0 |
| 20260506140537 | 7 | 0 | 1.6 | 4.8 | 0.00 | 0.15 | 0.00 | 49 | 1019.9 |
| 20260506140043 | 7 | 89 | 1.6 | 8.0 | 0.00 | 0.15 | 0.00 | 52 | 1019.8 |
| 20260506135533 | 7 | 0 | 0.0 | 9.7 | 0.00 | 0.23 | 0.00 | 52 | 1019.9 |
| 20260506135033 | 7 | 113 | 4.8 | 9.7 | 0.00 | 0.23 | 0.00 | 55 | 1019.7 |
| 20260506134549 | 6 | 82 | 3.2 | 8.0 | 0.00 | 0.23 | 0.00 | 56 | 1019.6 |
| 20260506134036 | 6 | 74 | 3.2 | 11.3 | 0.00 | 0.23 | 0.00 | 60 | 1019.8 |
| 20260506133535 | 6 | 61 | 4.8 | 11.3 | 0.00 | 0.23 | 0.00 | 59 | 1019.6 |
| 20260506133048 | 6 | 86 | 6.4 | 11.3 | 0.00 | 0.23 | 0.00 | 61 | 1019.5 |
| 20260506132536 | 6 | 94 | 4.8 | 6.4 | 0.00 | 0.23 | 0.00 | 63 | 1019.4 |
| 20260506132031 | 6 | 108 | 1.6 | 4.8 | 0.00 | 0.23 | 0.00 | 66 | 1019.6 |
| 20260506131554 | 6 | 151 | 1.6 | 3.2 | 0.00 | 0.23 | 0.00 | 68 | 1019.5 |
| 20260506131033 | 5 | 110 | 0.0 | 1.6 | 0.00 | 0.23 | 0.00 | 70 | 1019.4 |
| 20260506130531 | 5 | 0 | 0.0 | 3.2 | 0.00 | 0.23 | 0.00 | 71 | 1019.4 |
| 20260506130048 | 4 | 0 | 0.0 | 4.8 | 0.00 | 0.23 | 0.00 | 69 | 1019.3 |
| 20260506125534 | 4 | 59 | 3.2 | 4.8 | 0.00 | 0.25 | 0.00 | 69 | 1019.3 |
| 20260506125034 | 3 | 60 | 3.2 | 6.4 | 0.00 | 0.25 | 0.00 | 69 | 1019.3 |
| 20260506124544 | 3 | 57 | 3.2 | 6.4 | 0.00 | 0.25 | 0.00 | 70 | 1018.9 |
| 20260506124035 | 3 | 57 | 4.8 | 6.4 | 0.00 | 0.25 | 0.00 | 72 | 1018.9 |
| 20260506123536 | 3 | 46 | 3.2 | 4.8 | 0.00 | 0.25 | 0.00 | 74 | 1018.8 |
| 20260506123043 | 3 | 65 | 1.6 | 4.8 | 0.00 | 0.25 | 0.00 | 75 | 1018.8 |
| 20260506122531 | 3 | 57 | 3.2 | 4.8 | 0.00 | 0.25 | 0.00 | 74 | 1018.7 |
| 20260506122034 | 3 | 34 | 1.6 | 3.2 | 0.00 | 0.25 | 0.00 | 76 | 1018.6 |
| 20260506121548 | 3 | 34 | 1.6 | 3.2 | 0.00 | 0.25 | 0.00 | 76 | 1018.7 |
| 20260506121035 | 3 | 34 | 1.6 | 9.7 | 0.00 | 0.25 | 0.00 | 75 | 1018.7 |
| 20260506120535 | 3 | 34 | 1.6 | 9.7 | 0.00 | 0.25 | 0.00 | 73 | 1018.7 |
| 20260506120047 | 3 | 45 | 4.8 | 9.7 | 0.00 | 0.25 | 0.00 | 70 | 1018.6 |
| 20260506115534 | 3 | 39 | 4.8 | 8.0 | 0.00 | 0.25 | 0.00 | 73 | 1018.5 |
| 20260506115033 | 3 | 26 | 4.8 | 9.7 | 0.00 | 0.25 | 0.00 | 74 | 1018.5 |
| 20260506114544 | 3 | 32 | 6.4 | 12.9 | 0.00 | 0.25 | 0.00 | 72 | 1018.3 |
| 20260506114036 | 3 | 37 | 8.0 | 14.5 | 0.00 | 0.25 | 0.00 | 73 | 1018.2 |
| 20260506113534 | 3 | 37 | 9.7 | 14.5 | 0.00 | 0.25 | 0.00 | 75 | 1018.2 |
| 20260506113043 | 3 | 32 | 9.7 | 14.5 | 0.00 | 0.25 | 0.00 | 72 | 1018.2 |
| 20260506112534 | 3 | 47 | 8.0 | 12.9 | 0.00 | 0.25 | 0.00 | 72 | 1018.0 |
| 20260506112037 | 3 | 38 | 8.0 | 16.1 | 0.00 | 0.25 | 0.00 | 74 | 1018.0 |
| 20260506111540 | 3 | 38 | 9.7 | 16.1 | 0.00 | 0.25 | 0.00 | 74 | 1018.0 |
| 20260506111033 | 3 | 38 | 8.0 | 14.5 | 0.00 | 0.25 | 0.00 | 74 | 1017.9 |
| 20260506110534 | 3 | 46 | 9.7 | 17.7 | 0.00 | 0.25 | 0.00 | 73 | 1017.9 |
| 20260506110040 | 3 | 43 | 12.9 | 19.3 | 0.00 | 0.25 | 0.00 | 73 | 1017.7 |
| 20260506105534 | 3 | 49 | 12.9 | 19.3 | 0.00 | 0.25 | 0.00 | 73 | 1017.6 |
| 20260506105037 | 3 | 42 | 16.1 | 19.3 | 0.00 | 0.25 | 0.00 | 72 | 1017.6 |
| 20260506104550 | 3 | 49 | 12.9 | 17.7 | 0.00 | 0.25 | 0.00 | 73 | 1017.7 |